Location: *
(51.1248°S, 108.4023°W)
Time: 14:03:15
(UTC+00:00)

H-2A R/B - Pass Details

Date: 29 October 2021
Orbit: 578 x 653 km, 98.5° (Epoch: 09 December)

Event Time Altitude Azimuth Distance (km) Brightness Sun altitude
Rises 02:44:51 0° 319° (NW) 2,965 5.7 -5.4°
Reaches altitude 10° 02:48:40 10° 285° (WNW) 2,080 5.5 -5.9°
Maximum altitude 02:50:11 12° 266° (W) 1,987 5.8 -6.1°
Drops below altitude 10° 02:51:43 10° 246° (WSW) 2,095 6.6 -6.3°
Sets 02:55:37 0° 212° (SSW) 3,023 6.9 -6.9°
